AKDT,Max TemperatureF,Mean TemperatureF,Min TemperatureF,Max Dew PointF,MeanDew PointF,Min DewpointF,Max Humidity, Mean Humidity, Min Humidity, Max Sea Level PressureIn, Mean Sea Level PressureIn, Min Sea Level PressureIn, Max VisibilityMiles, Mean VisibilityMiles, Min VisibilityMiles, Max Wind SpeedMPH, Mean Wind SpeedMPH, Max Gust SpeedMPH,PrecipitationIn, CloudCover, Events, WindDirDegrees
2013-4-1,43,36,30,41,35,28,100,97,86,30.13,30.01,29.98,10,7,0,8,1,16,0.09,7,Fog-Rain,228
2013-4-2,46,38,30,37,33,30,100,91,60,30.29,30.23,30.15,10,9,2,8,2,,0.08,5,Rain-Snow,219
2013-4-3,51,40,30,34,29,21,96,68,36,30.28,30.16,30.01,10,10,10,13,2,,0.01,3,,23
2013-4-4,55,46,37,29,27,23,68,50,30,29.99,29.75,29.55,10,10,10,14,6,17,0.00,6,,33
2013-4-5,45,42,39,41,37,26,89,81,51,29.54,29.49,29.40,10,10,9,9,5,,0.04,8,Rain,29
2013-4-6,50,46,43,41,38,34,89,75,59,29.75,29.51,29.33,10,10,8,14,7,25,0.03,7,Rain,79
2013-4-7,52,43,34,38,35,31,96,78,54,30.01,29.89,29.76,10,10,8,10,2,,0.01,2,Rain,225
2013-4-8,48,39,30,39,34,28,96,80,54,29.99,29.88,29.66,10,10,10,8,2,16,0.05,5,Rain,153
2013-4-9,46,42,37,43,39,34,97,87,76,29.86,29.59,29.34,10,7,2,15,8,33,0.71,8,Rain,195
2013-4-10,42,38,32,34,32,30,93,86,70,30.19,30.04,29.87,10,7,1,10,2,,0.10,8,Rain-Snow,197
2013-4-11,42,36,32,34,31,30,100,86,70,30.27,30.17,29.75,10,7,0,12,4,16,0.23,7,Fog-Rain-Snow,177
2013-4-12,46,40,35,36,34,30,92,79,65,29.74,29.53,29.35,10,10,10,17,5,24,0.05,7,Rain,32
2013-4-13,50,39,28,34,30,27,100,80,46,30.07,29.91,29.76,10,7,0,14,2,21,0.00,4,Fog,237
2013-4-14,54,43,34,41,34,30,92,77,54,30.23,30.13,30.07,10,10,10,9,3,,0.05,5,Rain,350
2013-4-15,53,40,28,35,32,27,96,76,50,30.44,30.35,30.24,10,10,10,14,2,22,0.00,0,,202
2013-4-16,46,39,34,36,33,30,93,84,62,30.43,30.32,30.11,10,9,4,10,2,17,0.22,6,Rain,205
2013-4-17,48,44,39,47,41,34,100,89,79,30.16,30.09,30.02,10,7,2,10,6,24,0.11,8,Rain,212
2013-4-18,46,42,37,43,38,33,100,91,80,30.14,30.02,29.92,10,7,1,7,1,,0.11,8,Rain,267
2013-4-19,48,39,30,34,27,22,88,63,42,30.25,30.12,29.98,10,10,10,15,3,21,0.00,1,,253
2013-4-20,53,38,27,30,23,16,92,58,29,30.40,30.32,30.27,10,10,10,10,3,,0.01,1,,11
2013-4-21,54,40,27,30,24,18,85,55,26,30.56,30.48,30.40,10,10,10,12,2,,0.00,0,,216
2013-4-22,55,42,28,34,29,21,92,64,29,30.60,30.58,30.56,10,10,10,9,2,,0.00,2,,220
2013-4-23,57,44,32,34,31,27,92,59,38,30.59,30.55,30.48,10,10,10,9,2,,0.00,2,,203
2013-4-24,48,44,41,46,43,33,100,93,63,30.47,30.20,29.95,10,5,2,10,4,,0.15,8,Rain,212
2013-4-25,46,44,42,45,43,39,100,93,87,29.93,29.75,29.56,10,4,2,12,7,24,1.25,8,Rain,198
2013-4-26,46,42,37,45,41,34,100,93,85,29.65,29.57,29.53,10,6,2,17,11,30,1.03,8,Rain,203
2013-4-27,45,39,35,37,35,32,100,91,76,29.89,29.75,29.56,10,8,2,21,7,33,0.83,8,Rain-Snow,203
2013-4-28,42,38,33,38,35,32,100,91,73,29.82,29.70,29.66,10,8,2,18,8,28,0.47,7,Rain-Snow,211
2013-4-29,42,34,28,34,28,24,93,75,55,30.27,30.05,29.83,10,10,9,10,5,17,0.01,6,Rain,312
2013-4-30,46,36,27,35,29,25,92,76,49,30.35,30.32,30.29,10,10,10,10,2,16,0.01,5,,220